Regional Weather Roundup
Issued by NWS

Home | Current Version | Previous Version | Text Only | Print | Product List | Glossary On
Versions: 1 2 3 4 5 6 7 8 9 10 11 12 13 14 15 16 17 18 19 20 21 22 23 24 25 26 27
000
ASUS46 KPQR 061710
RWROR

OREGON REGIONAL WEATHER ROUNDUP
NATIONAL WEATHER SERVICE PORTLAND OR
1000 AM PDT FRI MAY 06 2016

NOTE: "FAIR" INDICATES FEW OR NO CLOUDS BELOW 12,000 FEET WITH
NO SIGNIFICANT WEATHER AND/OR OBSTRUCTIONS TO VISIBILITY.

ORZ001>013-061800-
NORTHWEST OREGON


CITY           SKY/WX    TMP DP  RH WIND       PRES   REMARKS
ASTORIA        SUNNY     60  51  72 N9        30.05F
NEWPORT        SUNNY     55  52  88 NW6       30.04F HAZE
PORTLAND       MOSUNNY   65  49  56 NW7       30.01F
VANCOUVER WA   SUNNY     64  50  60 VRB6      30.01F
SCAPPOOSE      SUNNY     67  46  47 N10G21    30.01S
HILLSBORO      SUNNY     66  48  52 NW3       30.01S
AURORA         MOSUNNY   64  49  57 NE8       30.02S
MCMINNVILLE    SUNNY     67  48  50 N9        30.01F
SALEM          SUNNY     65  50  58 NE13      30.00F
CORVALLIS        N/A     66  48  52 NE10      30.01F
EUGENE         SUNNY     62  50  64 N15       30.00S
$$

ORZ021-028-061800-
SOUTHWEST OREGON


CITY           SKY/WX    TMP DP  RH WIND       PRES   REMARKS
NORTH BEND     SUNNY     57  52  82 NW3       30.02S
BROOKINGS      SUNNY     67  52  58 NW8       29.88F
ROSEBURG       PTSUNNY   59  49  69 SW3       29.98S
SEXTON SUMMIT  FOG       47  47 100 N9        29.93F VSB<1/4
MEDFORD        MOSUNNY   63  49  60 CALM      29.92S
$$

ORZ014>016-041-061800-
COLUMBIA GORGE


CITY           SKY/WX    TMP DP  RH WIND       PRES   REMARKS
TROUTDALE      SUNNY     62  50  64 VRB3      30.01F
THE DALLES     SUNNY     67  52  58 VRB3      29.99F
$$

ORZ029>031-041-044-049-050-061>064-502-503-505>511-061800-
EASTERN OREGON


CITY           SKY/WX    TMP DP  RH WIND       PRES   REMARKS
REDMOND        PTSUNNY   59  46  62 N10       30.02R
BEND           CLOUDY    54  46  76 N10       30.03R
PRINEVILLE     CLOUDY    57  48  72 N12G18    30.01R
KLAMATH FALLS  MOSUNNY   61  45  55 NE14      29.92R
LAKEVIEW       PTSUNNY   52  43  71 N20G28    29.94R
HERMISTON      MOSUNNY   68  48  48 N9        29.99S
PENDLETON      PTSUNNY   60  46  59 W5        30.00R
JOHN DAY       CLOUDY    55  49  82 W5        29.98S
MEACHAM        NOT AVBL
LA GRANDE      CLOUDY    61  46  59 NW17G24   29.94S
BAKER CITY     CLOUDY    61  50  67 NW21G29   29.94F
BURNS          PTSUNNY   57  46  66 NW17      29.93R
ROME             N/A     51  47  86 S9        29.92R
ONTARIO        CLOUDY    71  50  47 NW17      29.83R
$$




USA.gov is the U.S. government's official web portal to all federal, state and local government web resources and services.